sat.trackr.live / text

‹ back to catalog

STARLINK-3339

NORAD 50820 · 2022-001T

PAYLOAD ACTIVE UNKNOWN

§ Identity

Operator
Country
US
Launch date
2022-01-06
Launch site
AFETR
Launch vehicle
Mass (kg)
RCS (m²)

Purposes: comms

External: N2YO · Heavens-Above · Gunter

§ Orbital elements

Epoch: 2026-05-24T09:31:17.964480Z

Period
95.44 min
Inclination
53.2163°
Eccentricity
0.0001430
Mean motion
15.08843134 rev/d
Perigee alt
538.7 km
Apogee alt
540.7 km
Semi-major
6,917.9 km
B*
8.4864e-5
RAAN
189.2578°
Arg perigee
78.4936°
Mean anomaly
281.6216°
Rev number
24,183

§ Raw data

STARLINK-33391 50820U 22001T   26144.39673570  .00001063  00000+0  84864-4 0  99902 50820  53.2163 189.2578 0001430  78.4936 281.6216 15.08843134241833

JSON: /api/v1/satellites/50820 · /tle

For live sub-satellite position, see the globe view (requires WebGL).

§ Visibility from observer

Set your observer location to see the next 7 days of passes ≥ 10°. The values pass through the URL so the page stays shareable.

No JS? Fill the form by hand. The geolocation button needs JavaScript.